Location: Asheville, NC
(35.6000°N, 82.5500°W)
Time: 23:08:53
(UTC-04:00)

SEEDS - Visible Passes

Search period start: 23 April 2018 00:00
Search period end: 03 May 2018 00:00
Orbit: 587 x 605 km, 97.5° (Epoch: 23 April)

Date Brightness Start Highest point End Pass type
(mag) Time Alt. Az. Time Alt. Az. Time Alt. Az.
23 Apr ? 20:47:40 10° SW 20:50:47 20° W 20:53:55 10° NW visible
24 Apr ? 20:58:19 10° SW 21:00:49 15° W 21:03:18 10° WNW visible
25 Apr ? 21:09:27 10° WSW 21:10:50 11° W 21:12:14 10° WNW visible
02 May ? 20:41:18 10° SSW 20:44:38 22° W 20:47:59 10° NW visible
